Notices

What's New in latest Release from April 7th, 2021:

- Updated Glossary, including Speed of Maximum Gust, and Total Hourly Precipitation

- Updated national and regional climate services offices contacts and prices information

- Addition of station inventory lists for 1981-2010, 1971-2000, and 1961-1990 Normals.

If you haven't already, please take our survey and provide feedback about our website: https://eccc.sondage-survey.ca/f/LanguageSelection.aspx?s=442ca660-fcf1-47c0-95a9-59707d6fd709

Hourly Data Report for May 12, 2020

MIRAMICHI RCS
NEW BRUNSWICK
Current Station Operator: ECCC - MSC

47°00'34.000" N
65°27'54.000" W
33.00 m
8100989
71744
ACQ

Download Data

Hourly Data (May 2020)
Hourly Data Report for May 12, 2020
TIME
LST
Temp Definition
°C
Dew Point Definition
°C
Rel Hum Definition
%
Precip. Amount Definition
mm

Wind Dir Definition
10's deg

Wind Spd Definition
km/h
Visibility Definition
km
Stn Press Definition
kPa
Hmdx Definition


Wind Chill Definition


Weather Definition


00:00 3.8 1.6 85 LegendMM 1 3   100.47     LegendNANA
01:00 4.9 1.7 80 LegendMM 3 10   100.36     LegendNANA
02:00 2.2 0.8 90 LegendMM 10 6   100.32     LegendNANA
03:00 2.3 0.9 90 LegendMM   0   100.29     LegendNANA
04:00 2.9 1.6 91 LegendMM 7 2   100.24     LegendNANA
05:00 3.3 1.9 90 LegendMM 8 6   100.22     LegendNANA
06:00 4.6 2.5 87 LegendMM 3 6   100.15     LegendNANA
07:00 5.1 3.0 86 LegendMM 3 10   100.12     LegendNANA
08:00 5.2 3.8 91 LegendMM 6 9   100.08     LegendNANA
09:00 5.5 4.4 93 LegendMM 1 4   100.01     LegendNANA
10:00 6.5 4.8 89 LegendMM 4 9   99.95     LegendNANA
11:00 7.4 4.8 83 LegendMM 4 7   99.88     LegendNANA
12:00 8.7 5.0 77 LegendMM 36 6   99.79     LegendNANA
13:00 8.6 5.8 83 LegendMM 29 5   99.73     LegendNANA
14:00 7.5 6.1 91 LegendMM 8 13   99.74     LegendNANA
15:00 5.8 5.0 95 LegendMM 9 15   99.78     LegendNANA
16:00 5.5 4.9 96 LegendMM 8 18   99.81     LegendNANA
17:00 5.1 4.5 96 LegendMM 7 11   99.87     LegendNANA
18:00 5.3 3.9 91 LegendMM 3 15   99.97     LegendNANA
19:00 4.7 3.6 92 LegendMM 3 6   100.06     LegendNANA
20:00 4.5 3.3 92 LegendMM 6 6   100.14     LegendNANA
21:00 3.4 2.3 92 LegendMM 31 9   100.21     LegendNANA
22:00 2.5 1.1 91 LegendMM 29 13   100.22     LegendNANA
23:00 1.8 0.5 91 LegendMM 28 15   100.23     LegendNANA

Notes on Data Quality.

Legend

  • E = Estimated
  • M = Missing
  • NA = Not Available*
  • [empty] = Indicates an unobserved value
Date modified: